Stanley, ID

7:56 PM MDT on September 25, 2017 (GMT -0600)
Stanley

Weather History for KSNT - February, 2012

Change the Weather History Date:

Tuesday, February 28, 2012

  Actual Average Record
Temperature  
Mean Temperature 19 °F 22 °F  
Max Temperature 28 °F 38 °F 65 °F (1923)
Min Temperature 9 °F 7 °F -34 °F (1922)
Degree Days  
Heating Degree Days 46 43  
Month to date heating degree days 1362 1306  
Since 1 July heating degree days 7503 7534  
Cooling Degree Days 0 0  
Month to date cooling degree days 0 0  
Year to date cooling degree days 0 0  
Moisture  
Dew Point 6 °F    
Average Humidity 61    
Maximum Humidity 83    
Minimum Humidity 38    
Precipitation  
Precipitation 0.00 in 0.07 in 0.36 in (1972)
Month to date precipitation 1.22 1.79  
Year to date precipitation 3.95 3.31  
Sea Level Pressure  
Sea Level Pressure 29.86 in    
Wind  
Wind Speed 5 mph (ESE)    
Max Wind Speed 13 mph    
Max Gust Speed 20 mph    
T = Trace of Precipitation, MM = Missing Value Source: NWS Daily Summary

Daily Weather History Graph

Daily Weather History Graph

Search for Another Location

Airport or City:

Trip Planner

Search our weather history database for the weather conditions in past years. The results will help you decide how hot, cold, wet, or windy it might be!

Date:

Astronomy

Feb. 28, 2012 Rise Set
Actual Time 7:19 AM MST 6:26 PM MST
Civil Twilight 6:50 AM MST 6:55 PM MST
Nautical Twilight 6:16 AM MST 7:28 PM MST
Astronomical Twilight 5:43 AM MST 8:02 PM MST
Moon 10:13 AM MST (2/28) 12:38 AM MST (2/28)
Length of Visible Light 12h 05m
Length of Day
11h 06m
Waxing Crescent, 38% of the Moon is Illuminated
Feb 28
Waxing Crescent
Feb 29
First Quarter
Mar 8
Full
Mar 14
Last Quarter
Mar 22
New

Hourly Weather History & Observations

Time (MST) Temp. Windchill Dew Point Humidity Pressure Visibility Wind Dir Wind Speed Gust Speed Precip Events Conditions
12:51 AM 10.9 °F 4.7 °F 3.9 °F 73% 29.83 in - SE 3.5 mph - N/A   Unknown
1:51 AM 10.0 °F 1.8 °F 3.9 °F 76% 29.83 in - East 4.6 mph - N/A   Unknown
2:51 AM 9.0 °F -0.9 °F 3.0 °F 77% 29.81 in - East 5.8 mph - N/A   Unknown
3:51 AM 10.0 °F 3.6 °F 3.0 °F 73% 29.80 in - ESE 3.5 mph - N/A   Unknown
4:51 AM 10.0 °F - 3.9 °F 76% 29.80 in - Calm Calm - N/A   Unknown
5:51 AM 10.0 °F 1.8 °F 3.9 °F 76% 29.80 in - East 4.6 mph - N/A   Unknown
6:51 AM 9.0 °F 2.4 °F 3.9 °F 80% 29.84 in - East 3.5 mph - N/A   Unknown
7:51 AM 9.0 °F 2.4 °F 5.0 °F 84% 29.86 in - SE 3.5 mph - N/A   Unknown
8:51 AM 12.0 °F 5.9 °F 6.1 °F 77% 29.87 in - SSE 3.5 mph - N/A   Unknown
9:51 AM 14.0 °F 8.2 °F 7.0 °F 74% 29.89 in - South 3.5 mph - N/A   Unknown
10:51 AM 18.0 °F 11.1 °F 7.0 °F 62% 29.90 in - ENE 4.6 mph - N/A   Unknown
11:51 AM 19.0 °F 12.3 °F 9.0 °F 65% 29.88 in - NNW 4.6 mph - N/A   Unknown
12:51 PM 21.9 °F 15.7 °F 9.0 °F 58% 29.87 in - North 4.6 mph - N/A   Unknown
1:51 PM 21.9 °F 17.2 °F 10.0 °F 60% 29.88 in - North 3.5 mph - N/A   Unknown
2:51 PM 27.0 °F 23.0 °F 7.0 °F 43% 29.86 in - NW 3.5 mph - N/A   Unknown
3:51 PM 27.0 °F 23.0 °F 5.0 °F 39% 29.85 in - Variable 3.5 mph - N/A   Unknown
4:51 PM 25.0 °F 17.1 °F 7.0 °F 46% 29.86 in - SSW 6.9 mph - N/A   Unknown
5:51 PM 23.0 °F 18.4 °F 6.1 °F 48% 29.88 in - SSW 3.5 mph - N/A   Unknown
6:51 PM 18.0 °F 12.7 °F 5.0 °F 57% 29.92 in - SE 3.5 mph - N/A   Unknown
7:51 PM 18.0 °F 9.8 °F 5.0 °F 57% 29.92 in - SSE 5.8 mph - N/A   Unknown
8:51 PM 16.0 °F 7.4 °F 5.0 °F 62% 29.91 in - ESE 5.8 mph - N/A   Unknown
9:51 PM 17.1 °F 8.7 °F 5.0 °F 59% 29.89 in - East 5.8 mph - N/A   Unknown
10:51 PM 19.9 °F 11.1 °F 8.1 °F 60% 29.83 in - SE 6.9 mph - N/A   Unknown
11:51 PM 21.0 °F 9.3 °F 12.9 °F 71% 29.80 in - SSE 11.5 mph 18.4 mph N/A   Unknown